Tacoma, WA

5:37 AM PST on December 18, 2017 (GMT -0800)
McChord Air Force Base

Weather History for KTCM - February, 2014

Change the Weather History Date:

Monday, February 24, 2014

  Actual Average Record
Temperature  
Mean Temperature 40 °F -  
Max Temperature 42 °F 48 °F 62 °F (2005)
Min Temperature 37 °F 30 °F 18 °F (1993)
Degree Days  
Heating Degree Days 26    
Moisture  
Dew Point 40 °F    
Average Humidity 100    
Maximum Humidity 100    
Minimum Humidity 99    
Precipitation  
Precipitation 0.65 in - - ()
Sea Level Pressure  
Sea Level Pressure 30.06 in    
Wind  
Wind Speed 5 mph (NNE)    
Max Wind Speed 9 mph    
Max Gust Speed -    
Visibility 6 miles    
Events Rain    
Averages and records for this station are not official NWS values.
T = Trace of Precipitation, MM = Missing Value Source: NWS Daily Summary

Daily Weather History Graph

Daily Weather History Graph

Search for Another Location

Airport or City:

Trip Planner

Search our weather history database for the weather conditions in past years. The results will help you decide how hot, cold, wet, or windy it might be!

Date:

Astronomy

Feb. 24, 2014 Rise Set
Actual Time 6:58 AM PST 5:48 PM PST
Civil Twilight 6:28 AM PST 6:18 PM PST
Nautical Twilight 5:52 AM PST 6:54 PM PST
Astronomical Twilight 5:17 AM PST 7:29 PM PST
Moon 3:15 AM PST (2/24) 12:42 PM PST (2/24)
Length of Visible Light 11h 50m
Length of Day
10h 49m
Waning Crescent, 27% of the Moon is Illuminated
Feb 24
Waning Crescent
Mar 1
New
Mar 8
First Quarter
Mar 16
Full
Mar 23
Last Quarter

Hourly Weather History & Observations

Time (PST) Temp. Windchill Dew Point Humidity Pressure Visibility Wind Dir Wind Speed Gust Speed Precip Events Conditions
12:58 AM 38.5 °F 35.0 °F 38.5 °F 100% 30.05 in 6.0 mi NE 4.6 mph - N/A   Overcast
1:58 AM 38.5 °F 32.7 °F 38.5 °F 100% 30.07 in 5.0 mi NNE 8.1 mph - N/A   Overcast
2:00 AM 39.2 °F 35.0 °F 39.2 °F 100% 30.05 in 6.0 mi NNE 5.8 mph - N/A   Overcast
2:50 AM 37.4 °F 33.8 °F 37.4 °F 100% 30.04 in 9.0 mi NE 4.6 mph - N/A   Overcast
2:58 AM 38.1 °F 34.6 °F 38.1 °F 100% 30.06 in 8.0 mi NNE 4.6 mph - 0.00 in   Overcast
3:58 AM 38.3 °F 34.8 °F 38.3 °F 100% 30.06 in 4.0 mi NE 4.6 mph - N/A   Overcast
4:58 AM 38.1 °F 33.7 °F 38.1 °F 100% 30.06 in 7.0 mi NNE 5.8 mph - N/A   Overcast
5:34 AM 37.4 °F 32.8 °F 37.4 °F 100% 30.03 in 7.0 mi NNE 5.8 mph - N/A   Overcast
5:36 AM 37.4 °F 33.8 °F 37.4 °F 100% 30.03 in 8.0 mi NE 4.6 mph - N/A   Overcast
5:37 AM 37.4 °F 33.8 °F 37.4 °F 100% 30.03 in 8.0 mi NE 4.6 mph - N/A   Overcast
5:47 AM 37.4 °F 32.8 °F 37.4 °F 100% 30.03 in 5.0 mi NE 5.8 mph - N/A   Overcast
5:58 AM 38.3 °F 35.9 °F 38.3 °F 100% 30.05 in 6.0 mi NE 3.5 mph - 0.00 in   Overcast
6:17 AM 37.4 °F 33.8 °F 37.4 °F 100% 30.03 in 5.0 mi NE 4.6 mph - N/A   Overcast
6:52 AM 37.4 °F 34.9 °F 37.4 °F 100% 30.03 in 8.0 mi NE 3.5 mph - N/A   Overcast
6:55 AM 37.4 °F 33.8 °F 37.4 °F 100% 30.03 in 9.0 mi NE 4.6 mph - N/A   Light Drizzle
6:58 AM 38.1 °F 34.6 °F 38.1 °F 100% 30.05 in 10.0 mi NNE 4.6 mph - 0.00 in   Light Drizzle
7:23 AM 37.4 °F 33.8 °F 37.4 °F 100% 30.03 in 2.5 mi NNE 4.6 mph - N/A Rain Light Rain
7:38 AM 37.4 °F 32.1 °F 37.4 °F 100% 30.03 in 4.0 mi NNE 6.9 mph - N/A   Overcast
7:58 AM 38.5 °F 33.4 °F 38.5 °F 100% 30.05 in 4.0 mi NNE 6.9 mph - 0.06 in Rain Light Rain
8:58 AM 39.0 °F 35.7 °F 39.0 °F 100% 30.05 in 6.0 mi NE 4.6 mph - 0.10 in Rain Rain
9:58 AM 39.7 °F 36.5 °F 39.4 °F 99% 30.06 in 5.0 mi North 4.6 mph - 0.10 in Rain Light Rain
10:58 AM 40.1 °F 38.0 °F 39.9 °F 99% 30.06 in 4.0 mi ENE 3.5 mph - 0.09 in Rain Rain
11:58 AM 41.0 °F 37.1 °F 40.8 °F 99% 30.06 in 8.0 mi North 5.8 mph - 0.05 in Rain Light Rain
12:58 PM 41.5 °F 36.4 °F 41.2 °F 99% 30.05 in 4.0 mi North 8.1 mph - 0.05 in Rain Rain
1:58 PM 41.7 °F 38.8 °F 41.5 °F 99% 30.04 in 5.0 mi NE 4.6 mph - 0.05 in Rain Light Rain
2:58 PM 42.4 °F 40.7 °F 42.4 °F 100% 30.04 in 8.0 mi NNE 3.5 mph - 0.04 in Rain Light Rain
3:13 PM 42.8 °F 41.1 °F 42.8 °F 100% 30.03 in 7.0 mi North 3.5 mph - N/A Rain Light Rain
3:18 PM 42.8 °F 40.1 °F 42.8 °F 100% 30.03 in 5.0 mi NNW 4.6 mph - N/A   Overcast
3:58 PM 42.3 °F 38.6 °F 42.3 °F 100% 30.06 in 4.0 mi North 5.8 mph - 0.03 in Rain Light Rain
4:58 PM 42.3 °F 38.6 °F 42.3 °F 100% 30.05 in 6.0 mi NNE 5.8 mph - 0.04 in Rain Light Rain
5:58 PM 41.7 °F 38.8 °F 41.7 °F 100% 30.06 in 6.0 mi NNE 4.6 mph - 0.02 in Rain Light Rain
6:58 PM 41.2 °F 36.6 °F 41.2 °F 100% 30.07 in 5.0 mi NNE 6.9 mph - 0.01 in Rain Light Rain
7:58 PM 40.8 °F 36.2 °F 40.8 °F 100% 30.08 in 5.0 mi NNE 6.9 mph - 0.00 in   Light Drizzle
8:41 PM 41.0 °F 35.8 °F 41.0 °F 100% 30.06 in 4.0 mi NNE 8.1 mph - N/A   Overcast
8:43 PM 41.0 °F 36.4 °F 41.0 °F 100% 30.06 in 4.0 mi NNE 6.9 mph - N/A   Light Drizzle
8:52 PM 41.0 °F 37.1 °F 41.0 °F 100% 30.07 in 4.0 mi NNE 5.8 mph - N/A   Overcast
8:58 PM 40.6 °F 36.7 °F 40.5 °F 99% 30.09 in 4.0 mi NNE 5.8 mph - 0.01 in   Overcast
9:58 PM 40.6 °F 36.7 °F 40.6 °F 100% 30.10 in 4.0 mi NNE 5.8 mph - N/A   Overcast
10:58 PM 40.3 °F 34.4 °F 40.3 °F 100% 30.11 in 6.0 mi NNE 9.2 mph - N/A   Overcast
11:04 PM 41.0 °F 35.2 °F 41.0 °F 100% 30.09 in 6.0 mi NNE 9.2 mph - N/A Rain Light Rain
11:36 PM 41.0 °F 37.1 °F 41.0 °F 100% 30.10 in 7.0 mi NNE 5.8 mph - N/A   Overcast
11:58 PM 40.3 °F 35.5 °F 40.3 °F 100% 30.12 in 7.0 mi NNE 6.9 mph - 0.00 in   Overcast